Location: Breckenridge
(39.4820°N, 106.0380°W)
Time: 14:47:21
(UTC-06:00)

Hubble Space Telescope - Pass Details

Date: 24 March 2019
Orbit: 537 x 540 km, 28.5° (Epoch: 21 April)

Event Time Altitude Azimuth Distance (km) Brightness Sun altitude
Rises 20:33:54 0° 217° (SW) 2,663 4.6 -14.9°
Reaches altitude 10° 20:37:47 10° 180° (S) 1,776 3.3 -15.6°
Enters shadow 20:38:52 11° 165° (SSE) 1,716 3.0 -15.8°
